Location: Harwich
(41.7160°N, 69.9939°W)
Time: 21:06:06
(UTC+02:00)

A-11 Canister half - Pass Details

Date: 06 December 2023
Orbit: 1524 x 1683 km, 47.3° (Epoch: 13 October)

Event Time Altitude Azimuth Distance (km) Brightness Sun altitude
Rises 05:11:31 0° 292° (WNW) 4,928 - -70.3°
Reaches altitude 10° 05:14:43 10° 293° (WNW) 3,928 - -70.4°
Maximum altitude 05:24:50 81° 21° (NNE) 1,658 - -70.7°
Drops below altitude 10° 05:34:37 10° 110° (ESE) 3,804 - -70.7°
Sets 05:37:39 0° 111° (ESE) 4,767 - -70.7°
